Location: C?be?ti
(46.0167°N, 22.7667°E)
Time: 15:59:38
(UTC+00:00)

Daily predictions for brighter satellites

Satellite Brightness Start Highest point End
(mag) Time Altitude Azimuth Time Altitude Azimuth Time Altitude Azimuth
Cosmos 2297 Rocket 2.8 16:13:39 10° S 16:18:48 38° ESE 16:23:58 10° NE
UNK 4.2 16:15:54 10° N 16:20:27 67° WNW 16:24:59 10° SSW
Cosmos 1455 Rocket 4.1 16:17:27 10° NNE 16:20:52 23° ENE 16:24:16 10° ESE
Aureole 3 Rocket 3.5 16:18:47 10° NNE 16:22:03 25° ENE 16:24:48 10° SE
YAOGAN 1 2.9 16:18:06 10° SE 16:22:05 40° ENE 16:26:05 10° N
Cosmos 2061 Rocket 4.1 16:17:02 10° N 16:23:21 61° ENE 16:29:34 10° SSE
PSLV R/B 4.4 16:20:12 10° ESE 16:23:38 26° ENE 16:27:04 10° N
COSMO-SKYMED 1 3.2 16:21:42 10° NNE 16:25:21 30° E 16:28:59 10° SSE
SPOT 1/Viking Rocket 3.5 16:20:16 10° SSE 16:25:22 77° ENE 16:30:30 10° N
CZ-4C R/B 1.9 16:22:29 10° SW 16:26:38 77° NW 16:31:58 10° NE
Meteor 2-1 Rocket 4.3 16:22:33 10° N 16:28:20 63° ENE 16:34:11 10° SSE
Cosmos 2292 Rocket 4.0 16:25:47 10° SSW 16:28:32 41° WNW 16:31:31 10° N
Lacrosse 5 rocket 2.8 16:26:02 10° WNW 16:28:54 23° NNW 16:31:50 10° NNE
SL-16 R/B 4.0 16:23:31 10° N 16:29:11 39° WNW 16:34:52 10° SW
Cosmos 192 4.4 16:25:41 10° NNW 16:30:35 86° WSW 16:35:28 10° SSE
CZ-2D R/B 3.7 16:29:09 10° SE 16:32:51 42° ENE 16:36:39 10° N
USA 267 3.6 16:29:15 10° NE 16:35:43 64° NNW 16:42:09 10° WSW
Okean 1 Rocket 3.0 16:31:58 10° N 16:36:20 63° E 16:40:39 10° SSE
Cosmos 1356 Rocket 3.5 16:34:25 10° NNW 16:38:22 76° W 16:42:20 10° S
Okean 2 Rocket 3.0 16:37:00 10° N 16:41:25 83° E 16:45:47 10° S
Cosmos 2221 Rocket 3.6 16:37:11 10° S 16:41:35 65° E 16:46:04 10° NNE
Cosmos 1378 Rocket 4.5 16:38:29 10° SSW 16:42:41 52° WNW 16:46:53 10° N
IRS-P3 4.3 16:37:51 10° SSE 16:43:10 79° WSW 16:48:32 10° NNW
Cosmos 2263 Rocket 3.6 16:44:14 10° SE 16:47:39 16° E 16:49:56 13° ENE
Cosmos 1980 3.7 16:43:12 10° NNW 16:48:51 66° ENE 16:54:26 10° SE
ATLAS 5 CENTAUR R/B 4.2 16:45:17 10° WNW 16:49:09 27° WSW 16:53:42 10° S
SJ-6B 3.7 16:46:48 10° ESE 16:49:26 21° ENE 16:52:05 10° NNE
COSMOS 2428 3.5 16:46:20 10° NNW 16:51:57 58° WSW 16:57:32 10° S
Cosmos 1025 Rocket 3.2 16:48:30 10° SSW 16:52:47 75° W 16:57:09 10° N
Cosmos 2237 Rocket 2.2 16:48:28 10° NNW 16:54:09 67° ENE 16:59:48 10° SE
Sich 1 Rocket 3.7 16:51:45 10° N 16:56:19 86° W 17:00:51 10° S
Meteor 1-27 4.4 16:50:50 10° N 16:56:30 54° ENE 17:02:11 10° SSE
Cosmos 2346 Rocket 4.5 16:53:00 10° S 16:59:16 87° E 17:05:34 10° N
NOSS 3-3 (C) 4.0 16:55:41 10° SW 17:00:51 67° NW 17:07:06 10° NE
SKYMED 2 4.0 16:56:51 10° N 17:01:10 65° WNW 17:05:27 10° SSW
Cosmos 1570 Rocket 4.0 16:56:22 10° S 17:01:34 63° ESE 17:06:47 10° NNE
SeaSat 1 3.2 16:57:13 10° SSE 17:02:00 55° WSW 17:06:50 10° NW
Cosmos 1125 Rocket 3.7 16:56:53 10° NNW 17:02:05 76° WSW 17:07:15 10° SSE
Resurs 1-3 3.8 16:59:08 10° S 17:03:25 71° WSW 17:07:43 10° NNW
SJ-7 4.0 17:01:35 10° SSE 17:05:16 84° ENE 17:08:58 10° NNW
Resurs 01 Rocket 1.7 17:01:16 10° SSE 17:05:33 53° ENE 17:09:51 10° N
SPOT 5 4.0 17:06:50 20° E 17:08:31 24° ENE 17:12:30 10° N
USA 234 4.1 17:06:19 10° SSE 17:12:39 51° SW 17:19:00 10° WNW
Cosmos 2227 Rocket 2.4 17:12:39 10° S 17:18:01 47° ESE 17:23:23 10° NE
Spot 4 Rocket 4.2 17:13:09 10° S 17:18:15 74° WSW 17:23:23 10° NNW
NOAA 6 4.0 17:13:18 10° SSE 17:18:28 90° WSW 17:23:39 10° NNW
SL-16 R/B 2.9 17:14:41 10° NNW 17:19:49 34° NE 17:22:03 25° E
Cosmos 2208 Rocket 3.9 17:17:24 10° S 17:22:35 69° ESE 17:27:53 10° NNE
Cosmos 773 Rocket 3.9 17:17:32 10° SSW 17:22:46 75° ESE 17:28:03 10° NNE
Tiangong -0.9 17:20:01 10° SW 17:22:49 29° SSE 17:23:23 27° SSE
CARTOSAT-1 3.8 17:22:52 10° S 17:27:03 69° WSW 17:31:15 10° NNW
Cosmos 1346 Rocket 3.0 17:25:29 10° SSE 17:28:21 38° ESE 17:28:21 38° ESE
CZ-4 R/B 3.4 17:42:57 14° NNE 17:42:57 14° NNE 17:43:39 10° N
CZ-4B R/B 4.3 17:44:18 25° NE 17:44:18 25° NE 17:47:38 10° N
Cosmos 1816 Rocket 4.4 17:38:14 10° S 17:44:19 69° E 17:50:30 10° NNE
ARIANE 6 FM1 Upper Stage 3.7 17:42:04 10° NNW 17:45:04 30° NNE 17:45:04 30° NNE
Atlas Centaur 2 4.4 17:42:33 10° SW 17:47:59 21° SSW 17:51:57 13° SSE
NOSS 3-4 (A) 3.9 17:41:31 10° NW 17:48:22 81° SW 17:55:55 12° SSE
NOSS 3-4 (C) 3.9 17:41:47 10° NW 17:48:39 82° SW 17:56:04 13° SSE
Terra 3.8 17:52:13 14° NNE 17:52:13 14° NNE 17:53:09 10° NNE
Cosmos 2150 Rocket 3.9 17:44:34 10° NNW 17:49:45 82° WSW 17:54:26 12° SSE
CSL-04 Debris 4.2 17:49:09 38° ESE 17:50:54 53° ENE 17:56:10 10° N
Cosmos 2034 Rocket 3.9 17:44:49 10° N 17:50:57 64° ENE 17:57:06 10° SSE
Orbus 7S? 3.7 17:43:54 10° NW 17:51:37 84° NE 17:52:36 54° ESE
Cosmos 2298 Rocket 4.0 17:47:37 10° NNW 17:52:56 82° WSW 17:57:28 14° SSE
Cosmos 1544 Rocket 3.8 17:49:23 10° N 17:52:59 50° NE 17:52:59 50° NE
CSL-04 Rocket 3.5 17:53:36 38° SE 17:55:28 61° ENE 18:00:41 10° N
Helios 1A Rocket 3.6 17:58:04 34° SSW 17:58:04 34° SSW 18:00:03 10° SSW
Cosmos 1634 Rocket 4.3 17:52:22 10° N 17:58:19 42° ENE 17:58:19 42° ENE
Cosmos 1975 Rocket 3.5 17:54:52 10° SSW 17:59:10 61° WNW 18:03:28 10° N
Cosmos 44 Rocket 3.8 17:55:26 10° SW 18:00:17 58° NW 18:03:11 25° NNE
Cosmos 2228 3.5 17:57:35 10° NNW 18:01:42 57° W 18:05:49 10° S
Cosmos 2297 Rocket 3.5 17:57:33 10° WSW 18:02:48 38° NW 18:08:05 10° NNE
Cosmos 1782 2.9 17:59:58 10° NNW 18:03:12 61° WNW 18:03:12 61° WNW
Lacrosse 5 rocket 3.5 18:04:43 10° NW 18:06:24 14° N 18:06:24 14° N
Cosmos 1943 4.2 18:02:44 10° N 18:06:44 29° NNE 18:06:44 29° NNE
DNEPR-1 R/B 4.2 18:02:55 10° NW 18:07:53 75° SW 18:10:09 38° SSE
CZ-4C R/B 4.1 18:12:19 10° WNW 18:15:57 21° NNW 18:19:25 13° NNE
Cosmos 2219 4.2 18:12:01 10° S 18:15:11 32° SSE 18:15:11 32° SSE
USA 267 4.3 18:15:08 25° NE 18:18:05 36° N 18:23:55 10° WNW
ERS-1 Rocket 4.4 18:22:18 26° N 18:22:18 26° N 18:24:37 10° N
Cosmos 2344 3.3 18:12:34 10° SSW 18:20:32 82° SE 18:23:43 37° NE
BREEZE-M DEB (TANK) 4.2 18:07:46 10° SW 18:23:52 75° SSE 18:24:42 65° E
Feng Yun 1-1 Rocket 4.2 18:26:58 77° E 18:27:01 77° ENE 18:32:56 10° NNW
Cosmos 2263 Rocket 2.2 18:25:07 10° SSW 18:30:48 80° WNW 18:31:44 63° N
PAYLOAD B 4.3 18:36:07 70° N 18:36:07 70° N 18:41:04 10° NNW
Resurs 01 Rocket 4.4 18:39:26 10° SW 18:42:14 16° W 18:45:02 10° NW
SPOT 5 3.7 18:45:52 48° WSW 18:46:06 48° W 18:51:00 10° NNW
Cosmos 2227 Rocket 3.8 18:57:15 10° WSW 19:02:14 31° NW 19:05:16 20° N
SL-16 R/B 3.1 18:58:42 10° NW 19:03:58 43° WSW 19:03:58 43° WSW
